STARLINK-34658 (64802 NORAD) Tracking and Keplerian Element Data

This shows tracking and keplerian element data for the satellite.

Feedback or suggestion? Click here.




ElementValue
Catalog64802
NameSTARLINK-34658
Epoch Orbit589
Epoch Day354.25003472
Epoch Year2025
RAAN334.9075
Inclination70.0006
Eccentricity0.000274
Argument of Perigee278.0693
Mean Anonmoly72.9479
Mean Motion14.99131204
Decay Rate0.000129
L11 64802U 25150N 25354.25003472 .00012900 00000+0 10646-2 0 9995
L22 64802 70.0006 334.9075 0002740 278.0693 72.9479 14.99131204 5898



Live tracking and technical data element details for STARLINK-34658 (NORAD 64802). STARLINK-34658 can be tracked NOW for your location showing map with azimuth and elevation plus other details from your city location.







IsCatalogInMostPopularTable: catalog: 64802, numindb: 8
Update: records affected: 1



GetName: 64802 STARLINK-34658

Hit Count: updated at: Wed, 15 Apr 2026 01:45:37 GMT